Vorticity
1 1 2 2 2 2 3 2 2 2 1 3 0 1 4 2 6 5 12 14 3 9 4 -5 -0 -3 -3 2 3 1 -2 -0 -1 1 1 1 3 2 2 0 -3 -3 -6 -7 -6 -5 -4 0 3 5 8 4 -0 -2 -3 -1 2 4 5 8 9 13 15 12 10 7 6 7 5 4 3 2 2 2 3 2 3 5 8 10 9 7 6 6 7 7 8 8 7 7 8 8 8 7 7 7 7
1 1 1 1 1 1 2 1 2 1 -0 1 1 -1 0 1 6 9 10 14 11 10 8 2 -0 -3 -6 -4 1 2 0 1 1 0 -1 1 2 1 2 -0 -1 -0 -0 1 -1 -5 -9 -4 1 4 9 5 1 -1 -3 -1 1 3 6 8 9 12 14 12 9 7 6 7 6 4 3 2 3 3 2 2 3 5 8 10 9 7 6 6 7 7 7 7 7 7 7 7 6 6 6 7 7
3 3 1 0 -0 -1 -0 -1 1 -0 0 -0 -2 -1 -0 1 4 8 6 8 11 7 9 9 4 2 -2 -6 -5 -1 1 1 -0 -1 1 3 2 -1 -2 -1 1 -1 -1 3 5 2 -5 -5 -3 3 10 6 2 1 -2 -1 1 4 6 8 9 10 13 12 9 7 6 7 6 5 3 2 3 3 2 2 3 5 7 9 9 7 6 7 7 6 5 6 7 8 8 7 6 6 7 8 8
8 7 5 4 2 1 1 1 2 0 2 2 -1 -1 -0 2 3 7 5 6 11 5 7 10 9 9 3 -2 -5 -3 -1 1 0 -2 -0 2 2 -1 -3 0 1 -1 -1 0 2 4 2 -2 -4 1 10 8 3 1 -2 -1 1 3 6 8 9 9 13 13 8 7 6 7 7 5 3 3 3 3 2 2 3 5 7 9 9 7 5 7 7 6 5 6 7 7 8 8 6 7 7 8 8
9 9 9 9 8 7 8 9 12 11 9 6 4 2 -0 2 2 6 4 4 12 8 4 7 10 13 9 4 -2 -1 -1 -2 -1 -2 -1 0 0 -1 -3 -1 -0 -1 -1 -2 -1 3 4 -1 -1 1 7 10 4 -0 -2 -0 2 3 6 8 9 9 13 13 8 7 6 7 7 5 3 3 3 3 2 2 3 4 7 9 9 7 6 7 7 6 6 6 7 7 7 7 6 6 6 6 6
7 8 9 10 10 10 10 10 13 14 13 13 11 7 1 -1 -1 3 4 2 9 8 3 4 5 9 13 13 5 0 -2 -2 -2 -2 3 2 0 -1 -3 -2 -1 -1 -1 -0 -0 0 2 1 3 4 9 13 5 -0 -2 -1 1 3 6 7 8 9 13 13 8 7 7 7 7 6 4 3 4 3 2 2 3 4 7 9 9 7 6 7 7 6 6 6 6 6 7 6 5 6 6 5 5
7 7 8 8 8 9 8 6 6 7 10 13 14 12 4 0 -2 -3 -0 3 9 8 4 5 3 3 8 13 13 6 -0 -1 -3 -4 1 2 0 -1 -1 0 0 1 -0 -1 -1 -1 2 4 5 7 11 13 5 0 -2 -1 1 3 5 7 9 9 13 13 7 8 7 7 7 6 4 3 4 3 3 3 3 4 7 9 8 7 6 7 8 7 6 6 5 6 7 7 6 6 5 5 5
9 7 7 6 6 7 6 5 6 6 6 9 10 13 11 7 6 1 -4 -3 5 8 4 4 5 3 3 7 11 9 6 3 1 -1 -1 -0 0 0 -0 -1 -0 -0 -2 -2 -1 -0 4 6 8 9 10 9 5 1 -2 -1 1 3 5 7 9 9 13 13 8 9 8 6 7 6 5 4 4 3 3 3 3 4 7 9 8 6 6 7 8 8 5 5 5 5 6 7 7 7 6 6 6
11 11 10 8 7 6 5 4 5 7 6 7 8 10 12 13 14 14 8 -3 -5 2 5 3 3 4 3 6 7 7 8 7 6 6 2 -1 -1 -1 -1 -2 -2 -1 -2 -1 1 3 6 8 9 10 8 6 4 1 -1 -0 1 3 5 8 10 9 13 12 8 9 8 6 6 7 5 4 4 3 3 3 3 4 7 9 8 6 6 7 8 8 4 4 5 4 4 5 7 7 7 6 7
9 11 11 12 12 10 9 8 5 5 4 6 8 7 9 12 14 15 19 15 -0 -6 2 4 1 4 4 3 6 7 8 8 7 6 4 1 -1 -1 -1 -0 1 2 2 2 3 6 5 5 9 11 8 6 4 2 0 0 2 2 4 9 10 9 13 11 8 9 7 6 6 7 6 4 4 4 3 3 4 4 6 9 8 6 6 7 8 7 4 3 3 4 4 4 4 5 6 5 5
5 6 8 9 11 12 12 13 12 8 5 5 5 5 9 12 12 8 13 26 20 1 -2 4 4 4 5 3 3 6 8 9 9 5 4 3 2 3 2 3 5 5 4 3 4 6 2 2 8 10 9 8 6 3 1 1 2 2 4 8 9 9 14 11 8 9 7 6 6 7 6 5 4 4 4 3 4 4 6 8 7 6 6 7 9 8 5 3 2 4 5 5 4 3 3 3 3
4 4 5 6 6 7 7 10 13 13 12 10 3 2 7 9 10 9 7 16 25 18 4 0 4 2 1 3 2 3 6 8 10 8 6 6 4 3 3 3 5 6 5 3 7 9 2 1 6 8 10 10 7 4 1 2 2 1 3 8 9 9 13 11 8 8 6 5 6 7 7 5 5 5 4 3 3 4 6 7 7 6 6 7 9 8 6 5 4 4 4 5 6 5 3 2 2
4 4 4 4 5 4 5 5 6 10 14 15 15 12 10 6 5 9 9 8 14 25 19 0 -2 2 -1 -1 0 1 4 6 7 8 9 9 6 5 4 3 3 4 5 5 8 7 0 1 5 6 9 9 7 4 1 2 2 1 2 7 9 9 14 11 8 8 6 6 6 6 7 6 5 5 4 3 3 4 6 7 7 7 7 7 8 8 7 7 6 5 5 5 6 7 6 4 3
4 4 4 3 5 4 5 5 3 6 6 13 23 23 18 12 6 4 7 9 8 17 24 11 -2 -1 2 0 -1 -0 4 6 5 5 8 9 9 9 8 5 5 7 6 6 4 0 -1 2 5 6 7 7 5 3 2 2 1 1 2 8 9 9 13 10 8 9 6 5 6 6 7 6 6 6 5 4 3 4 5 6 6 7 7 7 7 7 7 7 7 6 7 6 6 7 7 7 5
4 3 4 3 5 4 5 5 5 6 2 8 16 17 20 21 16 9 4 5 8 9 15 20 9 -2 3 7 4 2 3 4 4 4 6 6 7 8 7 6 7 9 9 7 3 0 2 4 5 7 6 5 5 3 2 2 2 2 2 7 9 10 13 10 8 10 7 5 5 7 7 6 6 6 5 3 3 3 4 5 5 6 6 6 6 6 6 6 7 7 7 7 7 8 8 8 7
7 5 5 4 7 5 6 5 5 7 1 3 9 8 11 17 21 18 9 2 3 8 10 18 18 6 3 6 5 4 3 2 3 5 5 4 4 4 4 8 7 6 8 9 6 6 8 6 5 7 6 5 5 3 3 2 2 1 2 7 9 10 12 9 8 10 8 5 5 6 7 7 7 7 6 3 3 3 3 4 4 5 5 5 5 5 6 6 6 7 7 8 8 8 8 8 8
8 8 7 6 9 8 8 6 5 6 1 2 6 6 5 7 16 18 17 11 2 4 8 12 17 15 7 5 6 3 3 3 3 4 4 4 4 2 3 6 5 1 4 7 7 8 10 8 6 7 7 6 5 4 3 3 2 1 2 6 10 10 11 9 9 10 8 6 5 6 7 7 8 7 5 3 4 3 3 4 4 4 5 4 5 5 6 6 6 6 6 7 8 8 8 8 8
7 8 6 6 9 9 9 7 5 4 2 4 4 6 5 4 11 14 17 19 11 5 5 8 12 16 12 7 8 2 2 4 4 4 4 5 5 3 2 3 2 -1 1 4 3 4 9 9 8 7 6 6 5 4 4 3 2 2 2 6 10 10 10 9 8 10 8 7 6 6 6 7 8 8 5 3 5 4 2 3 3 3 4 4 4 5 5 6 6 6 6 7 7 7 7 7 8
7 7 6 6 7 7 9 8 6 3 2 5 3 5 4 2 8 9 11 16 21 15 6 7 9 13 14 12 11 3 2 3 3 4 4 5 5 3 2 2 2 -1 -1 3 -1 -2 6 9 7 6 5 6 5 5 4 3 2 1 2 7 12 10 9 8 8 10 8 7 6 6 6 7 8 8 6 3 6 6 2 2 3 2 3 4 4 4 5 5 5 5 5 6 6 7 7 7 8
6 7 6 6 7 8 10 9 9 6 5 5 3 5 3 2 6 6 6 8 19 22 10 6 6 8 12 16 16 7 2 2 1 2 3 5 5 4 3 3 2 -1 -1 6 5 0 4 6 6 5 5 6 6 5 4 3 3 2 3 9 12 10 9 8 7 10 8 7 7 6 6 7 8 8 6 4 7 7 3 2 2 2 2 4 4 3 4 4 5 5 5 6 6 6 7 7 7
6 7 6 6 8 9 11 12 12 11 9 6 3 5 3 3 5 4 5 4 12 21 17 8 4 6 9 15 19 14 6 1 2 3 3 5 6 5 4 4 3 3 6 12 12 8 7 5 5 6 5 5 5 5 5 4 3 2 5 10 11 9 8 8 7 9 8 7 7 6 6 7 8 9 6 5 7 8 5 2 1 2 2 2 3 3 3 4 5 5 6 6 6 7 7 7 7
6 6 5 6 8 9 11 13 13 14 12 9 5 5 4 4 4 4 5 4 7 14 20 15 4 5 7 9 15 18 13 4 1 2 2 3 5 5 5 5 6 10 14 15 13 13 14 8 4 5 5 5 5 5 5 3 3 3 6 11 10 8 7 7 8 10 8 6 7 6 6 7 8 8 7 6 7 8 7 2 1 2 2 2 3 3 2 3 5 5 6 6 6 7 6 6 6
6 6 6 6 6 7 11 13 13 13 14 11 8 5 4 5 4 5 4 3 6 9 16 18 10 4 5 8 11 16 18 11 4 0 -0 1 2 3 3 4 8 13 11 9 9 12 15 9 2 3 4 5 5 5 4 4 4 5 9 12 9 7 7 7 8 10 8 7 7 6 7 6 7 8 8 7 6 8 7 4 2 2 2 2 2 2 2 3 4 5 5 5 6 7 6 6 6
6 6 6 6 6 7 9 12 12 12 14 13 12 8 4 5 5 5 5 3 6 7 9 15 15 7 4 7 8 11 15 14 11 5 3 3 3 4 3 4 8 9 4 4 7 10 14 13 6 2 2 5 5 5 4 4 5 7 10 10 7 7 6 7 9 10 8 7 6 6 8 6 7 8 7 7 7 7 7 5 3 2 2 2 2 2 2 2 3 5 5 5 6 6 6 5 5
7 6 6 6 6 6 8 9 9 10 12 12 13 11 6 5 4 4 5 5 5 6 7 11 14 11 6 6 7 9 10 12 13 11 10 8 5 5 5 6 6 4 1 3 6 9 12 13 10 5 4 5 6 6 4 4 7 9 10 8 7 7 6 8 9 10 9 7 7 6 7 6 6 8 7 7 7 7 6 6 5 3 2 2 2 3 2 2 3 5 4 4 6 6 6 6 5
9 8 6 6 6 6 6 7 9 10 10 11 11 12 10 5 3 4 4 5 5 5 7 8 10 10 8 8 8 8 9 8 7 6 7 7 5 6 6 6 5 3 2 3 6 10 11 11 11 9 7 7 5 5 5 8 11 9 8 8 8 7 7 8 9 10 9 6 7 7 7 6 6 8 7 7 7 8 6 5 7 5 3 2 3 3 2 2 2 4 4 3 5 6 6 6 5
9 9 8 6 5 5 5 6 7 9 9 9 10 11 12 7 4 6 4 3 4 5 7 7 9 9 8 10 8 7 7 7 5 1 0 2 4 6 7 7 5 2 1 2 4 8 10 8 10 12 10 9 8 8 9 9 8 6 7 7 7 8 8 8 10 10 9 7 7 7 7 6 6 8 7 7 7 8 6 5 7 6 4 3 3 3 3 2 2 3 4 3 4 4 4 4 4
9 8 9 6 5 5 3 5 6 6 8 9 10 10 10 7 5 8 6 2 3 4 5 6 7 7 7 9 9 8 7 6 7 5 4 6 8 8 7 5 2 0 -0 1 3 6 13 11 10 14 12 11 10 10 11 9 6 4 6 7 7 9 9 8 10 10 8 7 7 7 7 5 5 7 7 7 7 7 7 5 7 7 5 4 3 3 3 3 2 2 3 3 3 3 2 2 3
9 8 9 8 6 6 4 7 7 5 8 10 9 7 8 7 6 10 7 2 2 2 4 6 6 7 7 8 8 9 8 6 8 8 9 10 10 7 4 2 -1 -1 -1 2 5 3 8 11 9 12 13 13 12 11 13 9 5 4 5 7 8 9 9 9 9 10 8 7 7 6 6 6 4 6 6 6 7 6 6 6 7 8 7 6 4 4 4 3 2 2 2 2 2 3 1 1 1
9 8 10 9 5 7 7 7 7 6 10 12 7 4 12 14 8 9 8 4 4 2 3 5 5 7 7 8 9 8 9 8 6 8 8 7 7 5 4 5 2 1 -1 5 18 16 12 12 9 11 13 11 9 10 13 9 4 4 6 6 9 9 9 10 9 9 9 7 8 7 6 6 4 4 5 5 6 6 6 7 7 9 8 7 5 4 5 4 3 2 1 2 2 2 2 1 2
9 8 9 10 6 8 11 7 5 6 10 12 5 4 16 18 9 9 8 6 5 3 3 4 5 6 6 8 8 9 11 11 10 12 13 11 10 8 7 7 5 6 5 6 14 16 18 17 10 8 7 7 9 9 7 6 4 3 6 7 8 10 8 9 10 8 9 8 7 6 6 5 4 4 5 5 5 5 6 6 7 8 8 7 6 5 5 5 4 3 2 1 1 1 2 2 2
6 6 8 10 8 10 13 8 5 8 8 7 3 4 15 18 12 10 9 7 6 5 4 3 4 4 5 6 7 12 12 10 13 14 13 10 12 13 13 14 14 15 17 14 5 0 3 6 10 15 9 3 4 5 2 -0 3 3 4 7 6 8 9 8 9 9 9 8 5 5 6 5 5 5 6 6 6 7 7 6 7 7 8 7 6 6 5 5 4 4 3 2 1 0 1 1 2
4 4 6 9 9 11 13 9 6 8 6 3 2 3 11 17 15 10 9 9 7 6 5 4 4 4 5 6 8 12 7 4 8 10 9 8 11 14 15 17 20 20 21 23 15 5 4 1 3 8 6 8 3 -1 1 -1 0 3 2 4 3 2 7 8 9 10 8 7 6 6 7 5 5 6 6 7 7 8 9 8 7 6 8 8 7 6 5 5 4 4 3 2 1 0 0 1 3
3 2 4 6 8 10 12 12 9 7 4 3 4 5 9 15 16 12 10 9 7 7 6 5 4 4 4 6 8 7 3 1 1 4 7 8 9 7 9 10 13 17 16 22 17 8 18 15 6 5 -2 5 12 1 -1 -1 -2 2 2 2 2 -0 3 7 9 9 7 6 7 7 7 6 6 8 7 7 7 8 9 9 8 6 7 7 6 6 4 4 3 3 4 2 2 2 2 3 4
8 6 4 6 8 9 12 13 10 8 6 4 5 6 9 13 15 15 11 10 10 8 7 7 6 5 4 4 7 5 3 2 -1 3 6 7 6 2 6 7 8 11 11 22 17 6 15 -1 -4 28 19 -3 8 11 2 3 1 -0 3 7 9 4 -0 4 7 7 7 6 7 7 7 7 8 9 7 7 7 6 8 10 10 6 6 7 5 5 4 4 4 3 4 4 4 4 3 4 5
10 7 7 6 8 9 12 15 12 9 7 5 5 5 9 11 13 15 13 10 11 10 8 9 8 8 8 7 8 5 2 2 2 6 5 5 4 1 5 7 8 10 11 20 15 6 11 -1 -5 22 29 11 8 10 1 0 4 1 3 9 14 9 -1 -0 4 6 8 6 8 9 9 10 9 8 7 7 7 8 11 13 13 7 5 7 5 5 6 4 5 5 5 5 5 5 4 6 6
9 6 6 5 7 8 11 15 13 9 6 6 6 5 6 8 10 13 12 10 11 12 11 12 11 12 14 14 14 9 5 6 7 7 3 2 3 1 4 6 5 7 12 19 15 4 1 18 19 -2 21 42 13 7 17 9 5 3 4 9 12 10 1 -0 4 5 7 7 10 11 10 9 7 6 6 6 9 12 14 16 15 13 10 8 6 6 7 5 5 6 6 6 5 5 6 6 6
9 6 6 5 6 7 9 14 14 9 8 7 6 5 5 6 8 9 10 10 10 12 13 15 15 15 15 17 18 14 9 7 6 5 4 2 1 2 3 5 6 4 10 15 16 15 2 13 21 1 40 67 13 4 24 9 2 -0 2 9 8 8 5 3 5 4 7 8 11 12 8 7 6 7 7 8 10 11 13 15 15 18 16 9 5 6 6 5 5 6 7 7 5 5 6 7 6
8 6 6 6 6 6 7 11 13 10 8 8 6 5 5 5 7 7 6 9 9 10 13 14 14 13 12 13 13 12 9 4 4 6 5 3 1 3 4 5 8 6 10 13 9 17 19 17 17 11 41 52 16 13 11 -2 9 8 5 11 6 8 10 6 4 4 6 9 12 11 7 7 6 7 8 7 9 9 11 13 15 17 13 6 6 7 6 5 5 7 8 6 5 5 6 7 7
8 6 5 6 6 6 7 10 12 10 9 8 7 5 5 4 5 6 5 6 7 8 9 10 9 8 7 7 7 8 8 4 6 8 5 5 4 4 6 4 8 8 7 12 10 10 16 20 20 16 24 27 18 23 20 13 19 13 10 12 8 12 10 4 4 5 8 10 11 10 7 7 7 7 7 6 7 9 11 13 15 14 7 5 8 8 6 5 5 6 6 6 6 7 8 8 6
8 7 7 7 6 6 7 11 13 10 9 9 9 7 5 4 3 5 5 4 6 6 7 7 6 5 4 4 4 3 5 6 7 8 6 6 5 2 6 5 7 11 6 7 11 10 12 16 17 13 17 22 15 22 36 28 14 10 12 13 14 14 7 5 6 6 7 9 10 9 8 8 7 6 6 8 8 8 10 12 12 10 5 5 8 8 6 5 5 6 6 7 7 7 9 8 5
8 7 8 8 6 4 6 12 13 10 9 8 9 9 6 6 4 3 5 4 4 4 4 6 5 5 5 5 8 6 7 10 9 8 7 6 7 5 7 10 11 11 12 13 11 9 9 12 16 12 13 19 15 19 30 22 12 14 12 13 15 8 3 4 4 5 6 8 10 10 8 6 5 5 7 9 9 7 9 9 8 7 6 6 7 7 5 5 5 5 6 7 7 8 8 6 6
7 8 11 9 5 3 4 12 15 11 9 8 8 8 7 8 6 3 4 3 2 1 0 2 3 4 6 8 13 14 13 16 12 8 8 8 10 9 7 9 11 11 14 14 12 9 6 6 12 13 12 15 13 14 17 15 18 17 12 15 12 5 4 2 -0 4 6 9 11 9 6 5 7 7 7 7 7 8 9 8 7 6 6 8 8 6 5 4 5 5 6 7 8 9 8 6 7
8 9 11 8 5 4 5 11 14 12 10 9 9 7 7 9 8 4 3 2 0 1 0 1 1 1 2 5 10 14 16 18 17 12 10 10 8 9 8 7 11 16 14 9 7 9 7 6 9 10 11 12 11 13 14 14 19 17 11 11 8 7 8 2 0 4 5 8 8 8 7 7 8 7 4 4 7 9 11 10 7 4 6 8 8 6 4 4 4 5 7 9 9 9 7 7 7
9 10 9 8 7 6 7 9 12 13 10 9 9 8 6 10 11 7 4 4 2 2 3 2 3 2 1 3 5 9 12 15 20 17 10 10 10 8 7 8 14 14 8 4 5 6 4 5 9 9 10 10 12 16 14 11 16 17 9 3 3 7 8 3 2 2 4 6 6 8 9 8 7 4 2 6 9 10 12 12 7 4 6 8 8 5 3 3 4 6 8 9 9 8 7 7 7
10 11 9 8 8 7 7 7 9 12 10 8 9 7 6 9 14 11 7 8 7 4 5 4 4 4 3 3 3 5 7 12 20 17 9 9 9 7 6 10 14 10 5 6 6 4 3 5 8 9 10 9 11 19 18 13 16 17 11 5 4 9 12 9 6 2 -1 2 6 8 8 7 5 2 3 7 10 10 12 12 8 5 6 7 7 4 2 3 5 7 9 9 8 7 7 8 8
10 11 10 8 8 8 8 6 7 8 8 9 10 7 5 8 14 15 10 12 14 9 7 6 5 5 4 3 3 4 5 12 18 14 11 11 9 12 17 16 12 7 7 7 5 3 3 6 9 10 12 12 12 16 17 13 12 15 14 10 6 6 9 11 12 11 5 0 3 6 6 6 5 4 5 7 8 10 10 9 6 4 5 7 6 4 3 4 5 7 9 8 8 8 9 9 7
8 11 12 9 7 9 8 6 4 4 5 8 9 6 5 7 12 17 12 11 16 15 11 9 7 6 7 4 4 5 3 8 16 13 11 14 14 18 19 14 9 7 5 4 5 6 4 6 9 10 12 17 19 18 16 12 9 12 14 7 -1 -2 5 13 14 14 13 7 2 4 7 7 7 7 6 7 8 9 9 7 4 2 5 7 7 5 3 4 6 7 8 8 8 9 9 8 6
8 9 11 8 6 6 6 5 4 3 6 8 7 7 6 5 9 14 12 11 15 18 16 15 12 11 10 8 7 8 3 4 14 18 18 17 15 15 12 9 9 6 3 4 6 5 5 8 11 11 11 15 20 18 15 15 11 11 11 3 -2 -0 8 18 13 5 9 10 5 6 8 7 8 9 9 9 8 7 7 5 2 4 9 10 7 4 4 4 6 8 8 8 8 9 8 6 6
9 9 10 6 5 5 5 7 6 4 5 7 7 7 5 5 8 10 10 12 15 16 15 15 15 12 7 5 6 8 3 3 13 19 14 9 9 11 10 9 9 5 1 2 4 4 7 8 10 13 11 11 17 17 15 17 12 11 10 7 10 12 12 16 11 2 5 10 9 7 7 8 9 10 10 9 8 7 6 4 5 10 14 11 6 4 4 4 6 7 7 8 8 8 6 5 5
11 10 11 9 7 7 6 7 7 5 4 6 7 7 5 4 7 9 8 11 14 15 14 13 11 7 4 3 5 7 3 2 12 13 4 3 9 15 17 13 11 8 4 4 5 5 7 7 9 12 8 9 18 23 23 18 11 10 10 12 16 13 10 12 8 4 7 10 8 6 7 10 11 11 10 9 9 7 4 7 11 12 11 9 6 4 4 5 6 6 6 8 7 6 5 4 3
13 12 10 8 8 7 7 7 6 6 5 6 7 5 5 5 6 8 7 8 12 15 14 11 6 4 6 7 6 8 6 4 10 8 1 5 10 13 16 14 14 13 7 5 6 5 6 7 9 10 6 6 16 27 31 20 9 9 10 12 12 6 7 12 9 9 12 8 6 7 9 11 11 10 9 9 10 6 6 10 10 7 7 7 6 4 5 5 5 5 6 8 7 6 5 3 1
13 14 9 7 8 6 7 7 6 6 6 8 9 5 5 6 7 9 7 7 11 13 12 9 8 8 8 8 8 10 10 11 13 7 3 7 8 9 11 8 13 16 9 4 4 5 7 8 10 11 9 8 11 22 28 17 8 12 12 9 7 5 7 10 10 13 12 7 6 6 7 9 11 10 9 11 9 8 10 9 5 6 8 7 5 4 5 5 4 5 6 7 7 6 4 2 1
13 14 9 8 9 6 6 6 5 6 6 9 10 5 5 5 5 9 9 8 10 11 11 10 11 12 10 10 11 11 14 18 16 7 6 10 6 8 11 8 10 13 9 6 4 5 7 9 12 12 11 11 10 17 23 16 10 13 13 8 6 7 7 7 11 13 10 7 5 4 7 9 10 9 11 10 8 11 13 6 3 8 7 5 5 5 4 4 3 5 7 7 7 5 2 1 2
11 12 10 8 8 6 6 6 5 6 5 8 9 6 6 5 4 9 10 10 10 11 12 12 12 13 14 17 16 16 22 23 14 6 9 11 5 6 10 11 12 11 9 8 5 6 8 10 11 11 12 9 5 11 17 16 12 8 9 9 6 5 6 8 12 11 9 6 4 6 9 8 8 9 10 9 10 12 10 4 5 8 6 5 5 4 3 3 4 5 7 6 5 4 2 1 3
8 10 12 9 7 8 7 5 5 7 7 6 7 7 7 5 6 9 10 10 10 11 12 11 13 15 17 20 20 19 19 13 8 10 11 7 6 7 6 6 9 9 10 9 6 7 8 8 7 7 9 3 -1 7 12 12 11 8 8 9 4 3 9 12 12 9 7 6 5 7 8 9 13 13 9 9 12 9 4 4 7 7 6 5 4 3 3 3 5 6 6 5 4 3 1 1 4
8 10 11 7 7 8 8 7 4 5 8 7 6 7 7 6 7 8 9 9 8 10 11 8 9 14 19 21 19 18 15 11 13 15 10 6 8 9 8 7 8 11 11 8 7 9 7 4 3 5 8 7 5 10 10 9 11 9 7 5 5 9 12 12 10 7 6 6 8 9 9 15 19 14 9 11 10 6 4 5 7 6 6 4 2 3 3 3 5 5 5 5 4 3 1 2 5
12 12 12 8 8 7 6 8 6 3 6 9 8 6 7 9 8 6 8 7 6 9 11 9 9 12 17 16 13 19 22 20 19 12 6 7 7 5 8 9 13 17 14 8 9 10 5 3 6 5 2 2 5 8 9 10 11 10 5 2 7 12 12 11 8 6 7 5 8 12 11 17 21 12 9 12 9 5 5 5 6 6 5 3 1 3 4 4 4 4 4 5 4 3 2 3 5
Height
5839 5840 5842 5843 5844 5845 5845 5847 5847 5848 5850 5850 5853 5855 5859 5864 5866 5868 5868 5868 5870 5870 5868 5867 5868 5867 5867 5869 5870 5871 5871 5872 5874 5875 5876 5876 5877 5877 5877 5878 5878 5878 5878 5879 5879 5880 5880 5880 5879 5879 5879 5878 5877 5877 5876 5876 5875 5874 5872 5871 5869 5868 5867 5866 5865 5865 5865 5864 5864 5864 5863 5863 5863 5862 5862 5861 5860 5859 5857 5856 5854 5853 5853 5852 5851 5850 5849 5848 5846 5845 5844 5843 5842 5842 5841 5840 5840
5836 5837 5838 5839 5841 5841 5842 5843 5843 5844 5846 5847 5850 5853 5857 5861 5864 5867 5867 5867 5868 5868 5866 5865 5865 5866 5866 5866 5867 5869 5870 5872 5873 5873 5874 5874 5875 5875 5876 5876 5876 5877 5877 5878 5878 5879 5879 5879 5878 5878 5878 5877 5876 5876 5875 5875 5874 5873 5872 5870 5869 5867 5866 5866 5865 5865 5864 5864 5864 5864 5863 5863 5863 5862 5862 5861 5860 5859 5857 5856 5854 5853 5853 5852 5851 5850 5849 5848 5847 5846 5845 5844 5843 5842 5841 5840 5840
5832 5833 5834 5836 5837 5838 5838 5839 5839 5841 5842 5843 5847 5851 5854 5859 5862 5865 5865 5865 5864 5864 5864 5863 5863 5865 5865 5865 5865 5867 5869 5870 5871 5871 5872 5872 5873 5874 5874 5875 5875 5875 5876 5876 5877 5877 5878 5878 5877 5877 5877 5876 5876 5875 5875 5874 5874 5873 5871 5869 5868 5867 5866 5865 5865 5864 5864 5864 5864 5863 5863 5863 5862 5862 5862 5861 5860 5859 5857 5856 5855 5854 5853 5852 5851 5851 5850 5849 5847 5846 5845 5844 5843 5842 5841 5841 5840
5828 5829 5830 5832 5833 5833 5833 5834 5835 5837 5837 5840 5844 5848 5852 5856 5860 5862 5862 5862 5862 5861 5861 5862 5862 5863 5865 5864 5864 5865 5867 5868 5868 5869 5870 5871 5872 5872 5873 5873 5873 5874 5874 5875 5875 5875 5876 5876 5876 5876 5876 5875 5875 5874 5874 5874 5873 5872 5870 5869 5867 5866 5865 5864 5864 5864 5864 5863 5863 5863 5863 5862 5862 5862 5861 5861 5860 5859 5857 5856 5855 5854 5853 5853 5852 5851 5850 5849 5848 5847 5846 5844 5843 5843 5842 5841 5840
5824 5825 5826 5827 5828 5829 5829 5829 5831 5832 5834 5838 5841 5845 5849 5853 5856 5858 5859 5859 5860 5859 5859 5860 5860 5862 5863 5863 5863 5863 5865 5866 5867 5867 5869 5869 5870 5871 5871 5872 5872 5872 5873 5873 5873 5874 5874 5875 5875 5875 5875 5874 5874 5874 5873 5873 5872 5871 5869 5868 5866 5865 5864 5864 5864 5863 5863 5863 5863 5863 5863 5862 5862 5862 5861 5861 5860 5859 5858 5857 5855 5855 5854 5853 5852 5851 5851 5850 5849 5847 5846 5845 5844 5843 5842 5842 5841
5820 5821 5822 5823 5824 5825 5825 5825 5827 5829 5832 5837 5839 5840 5844 5849 5852 5854 5856 5856 5858 5858 5856 5857 5858 5859 5861 5862 5862 5862 5863 5864 5865 5866 5867 5868 5869 5870 5870 5870 5871 5871 5871 5871 5872 5872 5872 5873 5873 5873 5873 5873 5873 5873 5872 5872 5871 5870 5868 5867 5866 5865 5864 5863 5863 5863 5863 5863 5862 5862 5862 5862 5862 5861 5861 5861 5860 5859 5858 5857 5856 5855 5854 5853 5853 5852 5851 5850 5849 5848 5847 5846 5844 5844 5843 5842 5841
5815 5816 5818 5819 5819 5820 5821 5822 5824 5827 5830 5834 5835 5836 5839 5845 5848 5851 5853 5854 5856 5856 5854 5854 5855 5857 5859 5860 5861 5861 5861 5862 5863 5864 5866 5867 5867 5868 5869 5869 5869 5870 5870 5870 5870 5871 5871 5871 5871 5872 5872 5872 5872 5871 5871 5870 5870 5868 5867 5866 5865 5864 5863 5863 5862 5862 5862 5862 5862 5862 5862 5862 5861 5861 5861 5861 5860 5859 5858 5857 5856 5855 5854 5854 5853 5852 5851 5850 5850 5848 5847 5846 5845 5844 5843 5842 5841
5811 5812 5813 5815 5815 5816 5817 5819 5821 5824 5826 5830 5832 5834 5837 5840 5843 5846 5849 5851 5853 5854 5852 5851 5853 5854 5856 5857 5858 5859 5860 5861 5861 5862 5864 5865 5866 5866 5867 5867 5868 5868 5868 5868 5869 5869 5869 5869 5870 5870 5870 5871 5870 5870 5870 5869 5868 5867 5866 5865 5864 5863 5862 5862 5862 5862 5862 5862 5861 5861 5861 5861 5861 5861 5861 5861 5860 5859 5858 5857 5856 5855 5855 5854 5853 5852 5852 5851 5850 5849 5848 5847 5845 5844 5843 5842 5841
5807 5807 5809 5810 5811 5812 5813 5815 5818 5820 5823 5827 5830 5832 5834 5836 5838 5840 5844 5848 5850 5852 5850 5849 5850 5851 5852 5854 5855 5857 5858 5859 5859 5860 5861 5863 5864 5864 5865 5865 5866 5866 5866 5867 5867 5868 5868 5868 5869 5869 5869 5869 5869 5869 5868 5868 5867 5866 5865 5864 5863 5862 5862 5861 5861 5861 5861 5861 5861 5861 5861 5861 5861 5861 5861 5860 5860 5859 5858 5857 5856 5855 5855 5854 5854 5853 5852 5851 5850 5849 5848 5847 5846 5845 5844 5843 5842
5802 5803 5805 5806 5807 5808 5809 5812 5815 5818 5821 5825 5827 5828 5831 5832 5834 5835 5838 5844 5847 5849 5848 5846 5845 5846 5849 5851 5853 5855 5856 5856 5857 5858 5859 5861 5862 5862 5863 5864 5864 5865 5865 5865 5866 5866 5867 5867 5867 5868 5868 5868 5868 5867 5867 5866 5866 5865 5864 5864 5863 5862 5861 5860 5860 5861 5861 5860 5860 5860 5861 5861 5860 5860 5860 5860 5860 5859 5858 5857 5856 5856 5855 5854 5854 5853 5852 5852 5851 5850 5849 5847 5846 5845 5844 5843 5842
5798 5799 5801 5801 5803 5804 5807 5811 5814 5816 5819 5822 5823 5825 5828 5829 5831 5832 5834 5839 5844 5845 5844 5841 5840 5843 5845 5848 5850 5852 5853 5853 5854 5856 5858 5859 5860 5860 5861 5862 5863 5863 5863 5864 5864 5865 5865 5866 5866 5866 5866 5866 5866 5866 5865 5865 5864 5864 5863 5863 5862 5861 5860 5860 5860 5860 5860 5860 5859 5860 5860 5860 5860 5860 5860 5860 5860 5859 5858 5857 5857 5856 5855 5855 5854 5853 5853 5852 5851 5850 5849 5848 5847 5846 5844 5843 5842
5794 5796 5797 5798 5800 5802 5805 5808 5811 5813 5815 5817 5819 5822 5825 5825 5827 5829 5831 5835 5839 5839 5838 5837 5837 5840 5842 5844 5846 5848 5849 5850 5852 5854 5856 5857 5857 5858 5859 5860 5861 5861 5862 5862 5862 5863 5864 5864 5864 5864 5864 5864 5864 5864 5863 5863 5863 5863 5862 5862 5861 5860 5859 5859 5859 5859 5859 5859 5859 5859 5860 5860 5859 5859 5859 5859 5859 5859 5858 5857 5857 5856 5855 5855 5854 5853 5853 5852 5851 5850 5849 5848 5847 5846 5845 5844 5843
5790 5792 5793 5794 5797 5799 5802 5804 5807 5809 5811 5814 5817 5820 5821 5822 5824 5827 5828 5830 5833 5834 5834 5835 5834 5835 5836 5838 5842 5844 5846 5848 5850 5852 5853 5854 5855 5856 5857 5858 5859 5860 5860 5860 5860 5861 5862 5862 5862 5862 5862 5862 5862 5862 5862 5862 5862 5862 5861 5860 5860 5859 5859 5858 5859 5859 5859 5858 5858 5858 5859 5859 5859 5858 5859 5859 5858 5858 5858 5857 5857 5856 5855 5855 5854 5854 5853 5852 5852 5851 5850 5849 5848 5847 5846 5844 5843
5786 5788 5789 5790 5793 5795 5797 5800 5803 5806 5809 5813 5814 5815 5816 5817 5820 5823 5824 5825 5828 5830 5829 5830 5829 5829 5831 5835 5839 5842 5844 5845 5847 5849 5850 5851 5853 5855 5855 5856 5857 5857 5858 5858 5858 5859 5860 5859 5860 5860 5860 5860 5860 5860 5860 5860 5860 5860 5860 5859 5859 5858 5858 5858 5858 5858 5858 5858 5858 5858 5858 5858 5858 5858 5858 5858 5858 5858 5858 5857 5857 5856 5855 5855 5854 5854 5853 5853 5852 5851 5850 5849 5848 5847 5846 5845 5844
5782 5784 5785 5786 5788 5790 5793 5797 5801 5804 5809 5812 5811 5812 5812 5813 5815 5817 5819 5820 5824 5825 5824 5826 5826 5825 5828 5833 5837 5840 5841 5842 5844 5846 5847 5849 5851 5852 5853 5854 5854 5855 5855 5856 5856 5857 5857 5857 5858 5858 5858 5858 5858 5858 5858 5859 5859 5859 5858 5858 5858 5857 5857 5857 5857 5857 5857 5857 5857 5857 5857 5857 5857 5857 5857 5857 5857 5857 5857 5857 5856 5856 5855 5855 5854 5854 5853 5852 5852 5851 5850 5849 5848 5848 5847 5846 5844
5778 5779 5780 5781 5783 5786 5790 5794 5798 5803 5807 5809 5809 5808 5808 5809 5811 5812 5814 5816 5819 5821 5821 5824 5824 5824 5826 5830 5834 5837 5837 5839 5841 5843 5844 5846 5848 5849 5850 5851 5852 5852 5853 5853 5854 5855 5855 5855 5856 5856 5856 5856 5856 5856 5857 5857 5857 5857 5857 5857 5857 5856 5856 5856 5856 5856 5856 5856 5856 5856 5856 5856 5856 5856 5856 5856 5857 5857 5857 5856 5856 5855 5855 5854 5854 5853 5853 5852 5852 5851 5850 5850 5849 5848 5847 5846 5845
5773 5774 5775 5776 5778 5782 5787 5792 5797 5801 5805 5807 5805 5804 5805 5807 5807 5808 5810 5811 5815 5818 5819 5821 5822 5822 5823 5826 5830 5833 5834 5836 5838 5839 5841 5843 5845 5847 5848 5849 5849 5850 5850 5851 5852 5852 5853 5853 5853 5853 5854 5854 5854 5855 5855 5856 5856 5856 5856 5856 5856 5855 5855 5855 5855 5855 5855 5855 5855 5855 5855 5856 5856 5856 5856 5856 5856 5856 5856 5855 5855 5855 5855 5854 5854 5853 5853 5852 5852 5851 5850 5850 5849 5848 5847 5846 5845
5768 5769 5770 5771 5775 5780 5786 5791 5795 5798 5801 5802 5801 5800 5802 5804 5803 5805 5807 5807 5811 5815 5816 5818 5819 5819 5820 5822 5826 5829 5831 5833 5834 5836 5838 5841 5843 5844 5845 5846 5847 5847 5847 5848 5849 5850 5850 5850 5851 5851 5852 5853 5853 5853 5854 5854 5854 5855 5855 5855 5854 5854 5854 5854 5854 5854 5854 5854 5854 5854 5854 5855 5855 5855 5855 5855 5856 5856 5855 5855 5855 5854 5854 5854 5853 5853 5852 5852 5851 5851 5850 5849 5849 5848 5847 5846 5845
5764 5765 5766 5768 5773 5779 5784 5788 5791 5794 5797 5798 5799 5798 5800 5801 5801 5803 5804 5804 5808 5812 5814 5815 5817 5817 5818 5820 5823 5826 5828 5829 5831 5834 5836 5838 5840 5842 5843 5843 5843 5843 5844 5846 5847 5847 5848 5848 5848 5849 5850 5851 5851 5852 5852 5853 5853 5853 5853 5853 5853 5853 5853 5852 5853 5853 5853 5853 5853 5853 5853 5854 5854 5854 5854 5855 5855 5855 5855 5855 5854 5854 5854 5853 5853 5853 5852 5851 5851 5850 5850 5849 5848 5847 5847 5846 5845
5760 5762 5762 5766 5772 5776 5781 5784 5787 5791 5793 5794 5795 5795 5797 5799 5798 5799 5800 5802 5805 5808 5810 5812 5814 5814 5815 5817 5820 5823 5825 5826 5829 5831 5834 5836 5837 5838 5839 5840 5840 5841 5842 5843 5843 5844 5845 5846 5846 5847 5848 5849 5849 5850 5850 5851 5851 5852 5851 5851 5851 5851 5851 5851 5851 5851 5852 5852 5852 5852 5852 5853 5853 5853 5854 5854 5854 5855 5855 5854 5854 5854 5853 5853 5853 5852 5852 5851 5850 5850 5849 5848 5848 5847 5846 5845 5844
5756 5758 5760 5765 5770 5772 5777 5781 5784 5787 5788 5790 5792 5793 5795 5796 5796 5796 5797 5800 5802 5804 5807 5809 5810 5811 5811 5814 5816 5819 5822 5824 5826 5828 5830 5832 5833 5834 5835 5836 5837 5839 5839 5840 5840 5841 5843 5844 5844 5845 5846 5847 5847 5848 5849 5849 5849 5849 5849 5849 5849 5849 5849 5849 5850 5850 5850 5850 5850 5851 5851 5852 5852 5852 5853 5853 5853 5854 5854 5854 5854 5853 5853 5853 5852 5852 5851 5851 5850 5849 5849 5848 5847 5846 5846 5845 5844
5753 5756 5759 5763 5765 5768 5774 5777 5780 5782 5783 5785 5788 5790 5792 5792 5793 5793 5794 5798 5800 5801 5804 5806 5807 5808 5808 5810 5813 5816 5819 5821 5823 5825 5826 5828 5829 5830 5831 5833 5835 5836 5837 5837 5837 5838 5840 5841 5842 5843 5844 5845 5845 5846 5846 5847 5847 5847 5847 5847 5847 5847 5847 5848 5848 5848 5848 5848 5849 5850 5850 5851 5851 5851 5852 5852 5852 5853 5853 5853 5853 5853 5853 5852 5852 5852 5851 5850 5850 5849 5848 5847 5847 5846 5845 5844 5844
5749 5752 5755 5758 5761 5765 5770 5773 5775 5777 5779 5781 5784 5787 5788 5789 5790 5791 5792 5795 5797 5798 5800 5802 5804 5806 5807 5808 5810 5814 5816 5818 5820 5821 5823 5824 5825 5827 5828 5830 5832 5834 5834 5834 5835 5835 5836 5838 5839 5840 5841 5842 5843 5843 5844 5844 5845 5845 5845 5845 5845 5845 5845 5845 5846 5846 5847 5847 5848 5849 5849 5849 5850 5850 5851 5850 5851 5851 5852 5852 5852 5852 5852 5852 5852 5851 5851 5850 5849 5848 5847 5847 5846 5846 5845 5844 5843
5745 5748 5750 5753 5756 5761 5766 5768 5770 5773 5775 5777 5780 5783 5784 5785 5787 5788 5790 5793 5794 5795 5797 5799 5802 5804 5805 5807 5809 5811 5813 5815 5817 5818 5820 5822 5823 5824 5825 5828 5830 5831 5831 5831 5832 5832 5833 5835 5836 5838 5839 5839 5840 5841 5841 5842 5843 5843 5843 5843 5842 5843 5843 5843 5844 5845 5845 5846 5846 5847 5847 5848 5848 5849 5849 5849 5849 5850 5850 5851 5851 5851 5851 5851 5851 5851 5850 5849 5849 5848 5847 5846 5845 5845 5844 5843 5843
5739 5742 5746 5749 5752 5757 5762 5764 5765 5768 5770 5773 5776 5779 5781 5781 5783 5785 5788 5790 5790 5792 5794 5796 5799 5801 5803 5805 5806 5809 5810 5812 5814 5815 5817 5819 5820 5821 5823 5825 5827 5827 5827 5828 5829 5829 5830 5831 5833 5834 5835 5836 5837 5838 5839 5840 5840 5841 5840 5841 5841 5841 5841 5842 5842 5843 5844 5844 5845 5845 5846 5846 5847 5847 5847 5847 5848 5849 5849 5850 5850 5850 5851 5850 5850 5850 5849 5849 5848 5847 5846 5846 5845 5844 5843 5843 5842
5733 5737 5741 5745 5749 5754 5757 5759 5761 5763 5766 5769 5771 5774 5777 5778 5779 5782 5785 5786 5786 5789 5791 5793 5796 5798 5800 5802 5804 5806 5807 5809 5810 5812 5813 5816 5817 5818 5820 5822 5823 5823 5824 5825 5826 5826 5827 5828 5829 5830 5832 5833 5834 5835 5836 5837 5838 5838 5838 5839 5839 5839 5840 5840 5841 5842 5842 5843 5843 5844 5844 5845 5845 5846 5845 5846 5846 5847 5848 5848 5849 5849 5849 5849 5849 5849 5849 5848 5847 5846 5846 5845 5844 5844 5843 5842 5841
5729 5732 5737 5741 5744 5749 5752 5755 5757 5759 5761 5764 5766 5770 5773 5775 5774 5778 5782 5782 5783 5786 5788 5790 5792 5795 5797 5799 5801 5803 5804 5805 5807 5808 5810 5812 5814 5816 5818 5818 5819 5819 5820 5822 5822 5823 5824 5824 5826 5827 5828 5830 5831 5832 5833 5834 5835 5835 5836 5837 5837 5838 5838 5839 5840 5840 5841 5842 5842 5842 5843 5843 5843 5844 5844 5844 5845 5845 5846 5847 5847 5848 5848 5848 5848 5848 5848 5847 5846 5846 5845 5844 5844 5843 5842 5841 5841
5725 5727 5732 5736 5738 5743 5747 5750 5753 5755 5757 5759 5762 5765 5769 5770 5769 5774 5780 5779 5780 5782 5784 5787 5789 5791 5794 5796 5798 5800 5801 5802 5804 5805 5807 5810 5812 5813 5815 5815 5816 5817 5818 5819 5819 5819 5820 5820 5822 5823 5825 5826 5828 5829 5830 5831 5832 5833 5834 5835 5835 5836 5837 5837 5838 5839 5840 5840 5840 5840 5841 5841 5841 5842 5842 5842 5843 5844 5845 5845 5846 5846 5847 5847 5847 5847 5846 5846 5846 5845 5845 5844 5843 5843 5842 5841 5840
5720 5723 5727 5731 5734 5738 5743 5747 5749 5751 5753 5756 5758 5760 5763 5766 5766 5771 5777 5776 5777 5779 5781 5784 5786 5789 5792 5794 5796 5797 5799 5800 5801 5803 5806 5809 5810 5811 5812 5812 5813 5814 5815 5815 5814 5815 5816 5816 5817 5819 5821 5823 5825 5826 5827 5828 5830 5831 5831 5832 5833 5834 5835 5836 5837 5837 5838 5838 5839 5838 5839 5839 5840 5840 5840 5841 5841 5842 5843 5844 5844 5845 5845 5845 5845 5845 5845 5845 5845 5845 5844 5844 5843 5842 5842 5841 5840
5716 5719 5722 5727 5730 5733 5739 5743 5745 5746 5748 5753 5754 5754 5760 5764 5764 5769 5773 5773 5774 5776 5778 5781 5784 5787 5789 5791 5793 5794 5796 5797 5800 5803 5806 5807 5807 5808 5808 5808 5810 5811 5812 5812 5812 5812 5812 5812 5813 5815 5817 5820 5821 5823 5824 5826 5827 5828 5829 5830 5831 5832 5832 5834 5834 5835 5836 5837 5837 5837 5837 5837 5838 5838 5838 5839 5840 5840 5841 5842 5842 5843 5843 5843 5843 5844 5844 5844 5844 5844 5843 5843 5842 5842 5841 5840 5840
5713 5715 5718 5722 5725 5728 5734 5738 5740 5742 5745 5750 5750 5750 5757 5762 5762 5766 5768 5770 5771 5773 5776 5779 5782 5784 5787 5788 5790 5792 5793 5796 5800 5802 5804 5804 5804 5804 5804 5804 5805 5807 5807 5809 5811 5811 5811 5811 5810 5811 5813 5815 5818 5819 5821 5823 5824 5825 5826 5828 5829 5830 5830 5831 5832 5833 5834 5835 5835 5835 5835 5836 5836 5836 5837 5837 5838 5838 5839 5840 5841 5841 5841 5841 5841 5842 5842 5842 5842 5842 5842 5842 5841 5841 5840 5840 5839
5708 5710 5713 5717 5720 5724 5730 5733 5736 5739 5743 5747 5746 5745 5754 5760 5760 5763 5765 5767 5769 5771 5774 5776 5779 5782 5784 5785 5787 5789 5792 5795 5798 5799 5800 5800 5800 5800 5800 5801 5801 5802 5802 5804 5808 5809 5810 5811 5811 5811 5811 5812 5814 5816 5818 5819 5821 5822 5824 5825 5827 5828 5829 5829 5830 5831 5832 5833 5832 5833 5834 5834 5834 5835 5835 5835 5836 5836 5837 5838 5839 5839 5839 5839 5840 5840 5840 5840 5841 5841 5840 5840 5840 5839 5839 5838 5837
5703 5706 5709 5712 5716 5720 5725 5729 5733 5737 5740 5742 5742 5742 5750 5757 5759 5761 5762 5764 5767 5769 5771 5774 5776 5779 5781 5782 5784 5787 5790 5793 5795 5795 5796 5797 5797 5798 5798 5798 5798 5798 5799 5801 5803 5804 5806 5808 5809 5810 5810 5810 5811 5813 5815 5816 5818 5820 5822 5823 5825 5826 5827 5827 5828 5829 5830 5830 5830 5831 5832 5832 5833 5834 5834 5834 5834 5834 5835 5836 5837 5837 5838 5838 5838 5838 5838 5838 5838 5839 5839 5838 5838 5838 5837 5836 5835
5697 5700 5702 5706 5711 5715 5721 5727 5731 5734 5737 5739 5740 5740 5746 5755 5757 5758 5759 5761 5764 5766 5769 5772 5774 5776 5777 5779 5782 5785 5787 5790 5791 5792 5793 5793 5794 5795 5796 5795 5794 5795 5796 5798 5800 5801 5802 5803 5804 5804 5806 5808 5809 5811 5812 5813 5815 5817 5819 5821 5822 5824 5825 5825 5826 5827 5828 5828 5828 5829 5830 5831 5831 5832 5832 5832 5832 5832 5833 5834 5835 5835 5835 5836 5836 5836 5836 5836 5836 5837 5837 5837 5837 5836 5836 5835 5834
5691 5694 5698 5703 5708 5712 5719 5726 5729 5732 5735 5737 5738 5738 5743 5752 5755 5756 5757 5758 5761 5764 5766 5769 5771 5772 5773 5776 5779 5782 5785 5787 5788 5788 5789 5790 5792 5793 5793 5792 5791 5792 5795 5796 5797 5798 5800 5800 5800 5800 5801 5804 5807 5809 5810 5810 5812 5814 5817 5819 5820 5822 5823 5824 5825 5826 5826 5826 5826 5827 5828 5829 5830 5830 5830 5830 5830 5829 5830 5831 5832 5833 5833 5833 5834 5834 5835 5835 5835 5835 5835 5835 5835 5835 5834 5833 5833
5688 5692 5697 5702 5707 5711 5718 5724 5727 5729 5732 5734 5735 5735 5740 5748 5752 5754 5755 5755 5758 5761 5763 5765 5767 5768 5770 5773 5776 5779 5782 5783 5784 5785 5786 5787 5789 5790 5790 5789 5789 5791 5793 5795 5795 5796 5797 5798 5797 5798 5799 5800 5803 5806 5807 5807 5809 5812 5814 5816 5817 5819 5821 5822 5823 5824 5825 5825 5825 5826 5826 5826 5827 5828 5828 5828 5827 5827 5828 5829 5829 5830 5831 5831 5832 5833 5833 5833 5833 5833 5833 5833 5833 5833 5832 5832 5831
5685 5689 5694 5698 5703 5708 5715 5721 5723 5725 5727 5730 5732 5732 5736 5743 5748 5751 5751 5751 5754 5757 5759 5761 5764 5766 5768 5770 5773 5776 5779 5780 5780 5781 5782 5784 5786 5787 5787 5787 5788 5790 5792 5793 5793 5794 5795 5796 5795 5796 5795 5795 5798 5801 5803 5806 5808 5809 5811 5812 5814 5816 5818 5819 5821 5823 5823 5824 5824 5824 5824 5824 5824 5825 5825 5825 5825 5826 5826 5826 5827 5827 5828 5829 5830 5831 5832 5831 5831 5831 5832 5832 5832 5831 5831 5830 5829
5681 5686 5690 5694 5699 5704 5710 5716 5719 5720 5722 5726 5728 5728 5731 5739 5744 5747 5747 5748 5750 5753 5756 5758 5761 5763 5765 5767 5770 5773 5775 5776 5776 5777 5779 5782 5783 5784 5784 5785 5787 5788 5790 5791 5791 5791 5792 5793 5793 5793 5791 5790 5793 5796 5799 5803 5805 5805 5807 5808 5810 5812 5815 5817 5819 5820 5822 5822 5823 5823 5823 5822 5822 5822 5822 5823 5823 5824 5824 5824 5824 5825 5826 5827 5828 5829 5829 5829 5829 5830 5830 5830 5830 5830 5829 5829 5828
5677 5682 5686 5690 5694 5699 5705 5710 5713 5715 5717 5721 5724 5725 5728 5735 5740 5743 5743 5744 5746 5750 5753 5755 5757 5759 5761 5763 5766 5769 5771 5772 5773 5774 5776 5779 5780 5781 5782 5784 5786 5787 5788 5789 5789 5789 5789 5790 5790 5790 5790 5790 5793 5795 5798 5800 5801 5802 5804 5805 5807 5809 5812 5814 5816 5818 5820 5820 5821 5821 5821 5820 5820 5820 5820 5821 5821 5822 5822 5822 5822 5823 5824 5825 5826 5827 5827 5827 5828 5828 5828 5828 5828 5828 5828 5827 5827
5673 5677 5681 5686 5690 5695 5701 5706 5709 5711 5713 5717 5720 5722 5725 5731 5736 5738 5739 5741 5743 5747 5750 5752 5754 5755 5757 5760 5762 5765 5766 5768 5769 5771 5774 5776 5777 5778 5780 5782 5784 5786 5786 5787 5787 5787 5787 5787 5787 5788 5789 5791 5793 5794 5796 5797 5799 5800 5802 5803 5805 5807 5809 5812 5814 5815 5817 5818 5819 5819 5819 5819 5818 5818 5818 5819 5819 5820 5820 5820 5821 5821 5822 5824 5825 5825 5825 5826 5826 5826 5826 5826 5826 5826 5826 5826 5825
5668 5673 5677 5682 5686 5691 5697 5702 5705 5707 5709 5713 5717 5719 5721 5726 5731 5735 5736 5738 5741 5745 5747 5749 5750 5752 5754 5756 5759 5760 5762 5765 5767 5769 5771 5773 5774 5776 5778 5780 5783 5784 5784 5785 5785 5785 5785 5785 5786 5786 5787 5789 5790 5791 5792 5794 5796 5798 5800 5802 5804 5806 5808 5809 5811 5812 5813 5815 5816 5816 5817 5817 5817 5817 5817 5817 5817 5818 5818 5819 5819 5820 5821 5822 5823 5823 5823 5824 5824 5824 5824 5824 5825 5824 5824 5824 5824
5663 5668 5673 5678 5683 5688 5693 5697 5701 5703 5705 5709 5713 5715 5717 5723 5727 5731 5734 5736 5739 5741 5743 5746 5747 5749 5751 5753 5756 5758 5760 5763 5765 5767 5770 5771 5772 5774 5777 5779 5781 5782 5782 5782 5782 5783 5783 5783 5784 5784 5785 5786 5787 5788 5789 5791 5793 5796 5798 5800 5801 5803 5805 5806 5807 5808 5810 5812 5813 5814 5815 5815 5815 5815 5815 5815 5815 5816 5816 5817 5817 5818 5819 5820 5821 5822 5822 5822 5822 5822 5822 5822 5822 5822 5823 5822 5822
5659 5665 5670 5675 5679 5684 5689 5693 5696 5698 5700 5704 5709 5710 5713 5719 5723 5727 5731 5732 5734 5737 5739 5742 5743 5745 5749 5752 5756 5758 5759 5761 5763 5766 5768 5769 5771 5773 5775 5777 5779 5779 5780 5780 5780 5781 5781 5781 5781 5782 5783 5783 5784 5785 5786 5788 5790 5793 5795 5797 5798 5800 5801 5803 5804 5806 5808 5810 5811 5812 5813 5813 5813 5813 5813 5813 5814 5814 5814 5814 5815 5816 5817 5818 5819 5820 5820 5820 5820 5820 5820 5820 5820 5820 5820 5820 5820
5656 5662 5667 5671 5677 5682 5686 5690 5692 5695 5697 5701 5705 5707 5709 5714 5719 5723 5726 5727 5729 5732 5735 5739 5741 5744 5748 5752 5755 5756 5758 5759 5761 5764 5766 5767 5769 5771 5772 5774 5776 5777 5777 5777 5777 5778 5779 5779 5779 5779 5780 5781 5781 5782 5783 5786 5788 5790 5793 5794 5796 5797 5799 5801 5803 5805 5806 5808 5809 5810 5811 5811 5811 5811 5811 5812 5812 5812 5812 5813 5813 5814 5815 5815 5816 5817 5818 5818 5818 5818 5818 5818 5818 5818 5818 5818 5817
5653 5659 5664 5669 5674 5679 5683 5686 5689 5693 5695 5698 5703 5705 5704 5709 5716 5719 5722 5724 5725 5728 5732 5737 5740 5743 5747 5751 5754 5755 5756 5757 5759 5761 5763 5765 5766 5768 5770 5772 5773 5774 5774 5775 5775 5776 5776 5777 5777 5777 5777 5778 5779 5779 5781 5783 5785 5788 5790 5791 5794 5795 5797 5799 5800 5802 5804 5805 5807 5808 5809 5809 5809 5809 5810 5810 5810 5810 5810 5811 5811 5812 5813 5813 5814 5815 5816 5816 5816 5816 5816 5816 5816 5816 5816 5816 5815
5651 5656 5661 5666 5671 5675 5679 5683 5687 5690 5692 5695 5699 5700 5700 5705 5712 5716 5718 5720 5722 5726 5731 5735 5738 5741 5745 5749 5751 5752 5754 5756 5758 5759 5761 5762 5764 5765 5767 5769 5770 5771 5772 5772 5772 5773 5773 5774 5774 5774 5775 5775 5776 5777 5779 5781 5783 5785 5787 5789 5791 5793 5795 5796 5797 5799 5801 5803 5804 5805 5806 5806 5806 5807 5807 5808 5808 5808 5809 5809 5810 5810 5811 5812 5812 5813 5813 5814 5814 5814 5814 5814 5815 5814 5814 5814 5813
5647 5652 5658 5663 5667 5671 5675 5679 5683 5684 5686 5692 5695 5696 5697 5700 5708 5714 5714 5717 5722 5725 5728 5732 5736 5739 5742 5746 5749 5751 5753 5754 5756 5757 5758 5760 5761 5763 5765 5766 5768 5768 5769 5769 5770 5770 5771 5771 5772 5772 5772 5773 5774 5775 5776 5778 5781 5783 5785 5787 5789 5791 5792 5793 5795 5797 5798 5800 5802 5803 5803 5803 5804 5805 5805 5806 5806 5806 5807 5807 5808 5809 5809 5810 5811 5811 5812 5812 5812 5812 5812 5812 5813 5812 5812 5812 5811
5643 5649 5656 5659 5663 5668 5671 5675 5678 5679 5682 5689 5692 5693 5693 5695 5704 5712 5712 5715 5720 5723 5726 5730 5733 5737 5740 5743 5746 5748 5750 5752 5753 5755 5756 5758 5759 5761 5763 5764 5765 5766 5766 5766 5767 5767 5768 5769 5769 5770 5770 5771 5771 5773 5774 5776 5778 5781 5784 5786 5787 5788 5789 5791 5793 5795 5795 5797 5799 5800 5800 5801 5802 5803 5803 5804 5804 5804 5805 5806 5807 5807 5808 5808 5809 5810 5810 5810 5810 5810 5810 5810 5810 5810 5810 5809 5808
5638 5645 5652 5656 5660 5664 5667 5670 5674 5676 5680 5685 5688 5688 5688 5691 5702 5710 5710 5712 5717 5721 5724 5728 5731 5734 5736 5739 5742 5745 5747 5749 5751 5753 5754 5756 5757 5759 5760 5761 5762 5763 5763 5763 5764 5765 5766 5767 5767 5768 5768 5768 5769 5770 5772 5773 5775 5778 5780 5782 5784 5785 5787 5789 5791 5792 5792 5794 5796 5797 5797 5798 5800 5801 5801 5801 5802 5802 5803 5804 5805 5805 5806 5807 5807 5808 5808 5808 5808 5808 5808 5808 5808 5808 5808 5807 5806
5633 5642 5648 5651 5655 5658 5661 5666 5669 5672 5675 5680 5684 5685 5685 5690 5700 5706 5707 5710 5715 5719 5722 5725 5727 5730 5731 5734 5738 5741 5744 5746 5749 5751 5752 5754 5755 5756 5757 5758 5759 5760 5760 5761 5761 5762 5764 5765 5765 5765 5766 5766 5767 5768 5769 5770 5772 5775 5777 5779 5782 5783 5785 5786 5787 5789 5790 5792 5793 5794 5795 5796 5797 5798 5799 5799 5799 5800 5801 5802 5803 5803 5804 5805 5806 5806 5806 5806 5806 5806 5806 5806 5806 5806 5806 5805 5804
5633 5640 5645 5649 5652 5655 5659 5662 5666 5668 5670 5676 5682 5683 5683 5688 5696 5704 5706 5709 5713 5716 5719 5722 5724 5726 5728 5730 5734 5738 5741 5744 5747 5749 5750 5751 5752 5753 5754 5755 5756 5757 5757 5758 5759 5760 5762 5762 5763 5763 5763 5764 5764 5765 5766 5768 5771 5773 5775 5777 5779 5781 5783 5784 5785 5787 5788 5789 5790 5791 5792 5793 5795 5796 5796 5796 5797 5798 5799 5800 5800 5801 5802 5803 5804 5805 5804 5804 5804 5804 5804 5804 5804 5804 5803 5802 5801
5633 5639 5642 5645 5650 5654 5658 5662 5665 5667 5668 5675 5681 5682 5682 5687 5694 5701 5705 5707 5710 5714 5716 5719 5721 5724 5727 5729 5732 5736 5739 5742 5745 5746 5748 5749 5750 5750 5751 5752 5753 5754 5755 5756 5757 5758 5759 5760 5760 5761 5761 5762 5762 5763 5764 5767 5770 5772 5773 5775 5777 5779 5780 5782 5783 5785 5786 5787 5788 5789 5790 5791 5793 5793 5793 5794 5795 5796 5797 5798 5799 5799 5800 5802 5802 5803 5802 5802 5802 5802 5802 5802 5802 5801 5801 5800 5799
5629 5635 5639 5643 5647 5651 5656 5661 5664 5666 5668 5675 5681 5681 5683 5686 5691 5698 5703 5705 5708 5711 5714 5717 5720 5723 5726 5728 5731 5734 5737 5740 5742 5744 5745 5747 5747 5748 5749 5750 5750 5751 5753 5754 5755 5756 5757 5758 5759 5759 5760 5760 5761 5762 5764 5766 5768 5770 5772 5774 5775 5776 5778 5779 5781 5782 5784 5785 5786 5786 5788 5789 5791 5791 5791 5792 5793 5794 5795 5796 5797 5798 5799 5800 5800 5801 5800 5800 5800 5800 5800 5800 5799 5799 5798 5797 5796
5626 5631 5636 5640 5645 5649 5654 5658 5661 5663 5666 5673 5678 5680 5681 5684 5688 5695 5701 5704 5706 5709 5712 5716 5719 5722 5725 5727 5729 5732 5735 5737 5739 5741 5742 5744 5745 5746 5747 5748 5749 5750 5751 5752 5753 5754 5755 5757 5758 5758 5759 5759 5759 5760 5761 5763 5765 5768 5770 5772 5773 5774 5775 5777 5778 5780 5782 5782 5783 5784 5786 5787 5788 5789 5790 5790 5791 5792 5793 5794 5795 5796 5797 5798 5798 5799 5798 5798 5798 5798 5797 5797 5797 5796 5796 5795 5794
5626 5629 5633 5639 5643 5646 5650 5655 5658 5660 5664 5671 5676 5677 5679 5682 5686 5692 5698 5702 5705 5708 5711 5715 5718 5720 5723 5725 5727 5729 5732 5735 5737 5738 5740 5741 5743 5744 5745 5746 5747 5748 5749 5751 5752 5753 5754 5755 5756 5756 5757 5757 5757 5758 5759 5761 5763 5766 5768 5770 5771 5772 5773 5775 5776 5778 5779 5780 5781 5782 5784 5785 5786 5787 5788 5788 5789 5790 5791 5792 5793 5794 5795 5796 5797 5797 5796 5796 5796 5795 5795 5795 5794 5794 5793 5792 5791
5620 5625 5632 5639 5643 5645 5649 5653 5656 5659 5663 5669 5673 5675 5677 5681 5686 5691 5697 5701 5704 5707 5710 5713 5716 5718 5721 5723 5725 5727 5730 5733 5735 5736 5737 5739 5741 5742 5743 5744 5745 5746 5747 5749 5751 5751 5752 5753 5754 5754 5754 5753 5754 5757 5759 5761 5763 5764 5767 5769 5769 5770 5771 5773 5774 5776 5777 5778 5779 5780 5781 5782 5783 5784 5785 5786 5787 5788 5789 5790 5791 5792 5793 5794 5794 5795 5794 5794 5794 5793 5793 5793 5792 5791 5791 5790 5789
5617 5623 5629 5635 5639 5643 5649 5653 5655 5658 5662 5666 5670 5672 5676 5681 5686 5690 5695 5699 5702 5705 5708 5711 5714 5716 5718 5720 5722 5725 5727 5730 5732 5733 5735 5737 5739 5740 5741 5742 5743 5744 5746 5748 5749 5750 5751 5751 5752 5752 5750 5750 5752 5756 5757 5758 5760 5762 5763 5765 5767 5768 5769 5770 5772 5774 5775 5777 5778 5779 5779 5780 5781 5782 5783 5784 5785 5786 5787 5788 5789 5789 5791 5792 5792 5792 5792 5792 5792 5791 5791 5790 5790 5789 5788 5788 5786
5620 5624 5628 5632 5635 5641 5646 5650 5654 5658 5661 5665 5668 5672 5676 5681 5685 5689 5693 5697 5700 5703 5706 5709 5712 5714 5716 5718 5720 5722 5725 5727 5729 5731 5733 5735 5737 5738 5739 5740 5741 5742 5745 5747 5748 5748 5749 5749 5749 5748 5747 5748 5752 5755 5755 5756 5757 5758 5760 5762 5764 5765 5767 5768 5770 5772 5774 5775 5776 5777 5778 5778 5778 5779 5781 5781 5782 5784 5785 5786 5786 5787 5788 5789 5790 5790 5790 5790 5790 5789 5788 5788 5787 5787 5786 5785 5784